Location: Ailly
(50.0793°N, 1.9944°E)
Time: 14:13:59
(UTC+00:00)

FengYun 1-2 T - Visible Passes

Search period start: 19 April 2026 00:00
Search period end: 29 April 2026 00:00
Orbit: 846 x 879 km, 98.8° (Epoch: 19 April)

Date Brightness Start Highest point End Pass type
(mag) Time Alt. Az. Time Alt. Az. Time Alt. Az.
19 Apr 5.8 03:55:21 10° NNE 04:00:37 38° E 04:05:50 10° SSE visible
20 Apr 6.1 03:47:00 10° NNE 03:52:05 33° E 03:57:07 10° SSE visible
21 Apr 6.3 03:38:41 10° NE 03:43:32 29° E 03:48:21 10° SSE visible
22 Apr 6.5 03:30:23 10° NE 03:34:59 25° E 03:39:32 10° SE visible
23 Apr 6.7 03:22:08 10° NE 03:26:25 21° E 03:30:39 10° SE visible
24 Apr 6.8 03:13:58 10° NE 03:17:50 19° E 03:21:41 10° SE visible
25 Apr 6.9 03:05:52 10° NE 03:09:15 16° E 03:12:36 10° ESE visible
26 Apr 7.0 02:57:55 10° NE 03:00:39 14° E 03:03:21 10° ESE visible
27 Apr 7.2 02:50:15 10° ENE 02:52:02 11° E 02:53:48 10° ESE visible
